This is the latest recevied weather packets stored in our database for station/object CQ0XPG-11. If no packets are shown the sender has not sent any weather packets the latest 10 day(s).
| Time | Temp. | Humidity | Pressure | Rain* | Wind** | Luminosity | Snow |
|---|---|---|---|---|---|---|---|
| 1777800686 | 14.44° C | 100% | 1004.9 hPa | 0 mm | - | - | - |
| 1777800374 | 13.89° C | 100% | 1004.9 hPa | 0 mm | - | - | - |
| 1777800079 | 13.33° C | 100% | 1004.7 hPa | 0 mm | - | - | - |
| 1777799761 | 12.78° C | 100% | 1004.5 hPa | 0 mm | - | - | - |
| 1777799188 | 12.78° C | 100% | 1004.2 hPa | 0 mm | - | - | - |
| 1777798863 | 12.78° C | 100% | 1004 hPa | 0 mm | - | - | - |
| 1777798589 | 12.22° C | 100% | 1003.8 hPa | 0 mm | - | - | - |
| 1777798259 | 11.67° C | 100% | 1003.7 hPa | 0 mm | - | - | - |
| 1777797966 | 11.67° C | 100% | 1003.6 hPa | 0 mm | - | - | - |
| 1777797668 | 11.11° C | 100% | 1003.6 hPa | 0 mm | - | - | - |
| 1777797343 | 11.11° C | 100% | 1003.5 hPa | 0 mm | - | - | - |
| 1777797046 | 11.11° C | 100% | 1003.4 hPa | 0 mm | - | - | - |
| 1777796770 | 11.67° C | 100% | 1003.3 hPa | 0 mm | - | - | - |
| 1777796440 | 11.11° C | 100% | 1003.2 hPa | 0 mm | - | - | - |
| 1777796120 | 11.11° C | 100% | 1003 hPa | 0 mm | - | - | - |
| 1777795869 | 11.11° C | 100% | 1003 hPa | 0 mm | - | - | - |
| 1777795521 | 11.11° C | 100% | 1003 hPa | 0 mm | - | - | - |
| 1777794938 | 11.11° C | 100% | 1002.9 hPa | 0 mm | - | - | - |
| 1777794638 | 11.11° C | 100% | 1002.9 hPa | 0 mm | - | - | - |
| 1777794308 | 10.56° C | 100% | 1002.7 hPa | 0 mm | - | - | - |
| 1777794052 | 10.56° C | 100% | 1002.7 hPa | 0 mm | - | - | - |
| 1777793701 | 10.56° C | 100% | 1002.6 hPa | 0 mm | - | - | - |
| 1777793408 | 10.56° C | 100% | 1002.6 hPa | 0 mm | - | - | - |
| 1777793133 | 10° C | 100% | 1002.6 hPa | 0 mm | - | - | - |
| 1777792803 | 10° C | 100% | 1002.4 hPa | 0 mm | - | - | - |
* Rain since midnight (hover to see other rain measurements)
** Current wind speed in m/s (hover to see current wind gust speed)